FW7205 Weather Reports


time (UTC)temp
C
wind
direction
speed
KPH
gust
KPH
rain 1hr
cm
rain 24hr
cm
rain mn
cm
humidity
%
barometer
mb
20260509201553 30 0 0.0 0.0 0.00 0.00 0.00 63 1008.2
20260509200057 31 0 0.0 1.6 0.00 0.00 0.00 63 1008.2
20260509194555 30 0 0.0 1.6 0.00 0.00 0.00 66 1008.1
20260509193057 30 0 0.0 0.0 0.00 0.00 0.00 67 1008.5
20260509191554 28 0 0.0 3.2 0.00 0.00 0.00 72 1008.9
20260509190056 29 0 0.0 1.6 0.00 0.00 0.00 70 1009.0
20260509184550 29 0 0.0 1.6 0.00 0.00 0.00 72 1009.0
20260509183055 28 346 0.0 3.2 0.00 0.00 0.00 72 1009.4
20260509181555 28 0 0.0 3.2 0.00 0.00 0.00 75 1009.4
20260509180054 28 0 0.0 3.2 0.00 0.00 0.00 75 1009.6
20260509174555 28 0 0.0 0.0 0.00 0.00 0.00 78 1009.7
20260509173116 27 0 0.0 0.0 0.00 0.00 0.00 83 1010.0
20260509171553 25 0 0.0 0.0 0.00 0.00 0.00 88 1010.3
20260509170112 25 0 0.0 0.0 0.00 0.00 0.00 89 1010.0
20260509164602 25 0 0.0 0.0 0.00 0.00 0.00 90 1010.2
20260509163053 24 0 0.0 0.0 0.00 0.00 0.00 90 1010.1
20260509161556 24 0 0.0 0.0 0.00 0.00 0.00 91 1010.1
20260509160059 24 0 0.0 0.0 0.00 0.00 0.00 91 1010.2
20260509154555 24 0 0.0 0.0 0.00 0.00 0.00 91 1010.2
20260509153054 24 0 0.0 1.6 0.00 0.00 0.00 91 1010.3
20260509151616 24 0 0.0 1.6 0.00 0.00 0.00 91 1010.2
20260509150055 23 0 0.0 8.0 0.00 0.00 0.00 92 1009.8
20260509144554 23 360 1.6 6.4 0.00 0.00 0.00 92 1009.1
20260509143106 24 360 0.0 6.4 0.00 0.00 0.00 93 1009.0
20260509141557 23 360 0.0 6.4 0.00 0.00 0.00 94 1009.0
20260509140057 23 208 0.0 3.2 0.00 0.00 0.00 94 1009.2
20260509134605 23 197 0.0 4.8 0.00 0.00 0.00 94 1009.3
20260509133104 22 0 0.0 1.6 0.00 0.00 0.00 94 1009.5
20260509131604 22 0 0.0 1.6 0.00 0.00 0.00 94 1009.5
20260509130128 22 0 0.0 1.6 0.00 0.00 0.00 94 1009.3
20260509124553 22 0 0.0 1.6 0.00 0.00 0.00 94 1009.3
20260509123120 22 0 0.0 0.0 0.00 0.00 0.00 93 1009.3
20260509121554 22 0 0.0 0.0 0.00 0.00 0.00 93 1009.6
20260509120054 22 0 0.0 0.0 0.00 0.00 0.00 93 1009.4
20260509114624 22 0 0.0 0.0 0.00 0.00 0.00 93 1009.4
20260509113108 22 0 0.0 1.6 0.00 0.00 0.00 93 1009.8
20260509111553 22 0 0.0 0.0 0.00 0.00 0.00 93 1009.3
20260509110100 22 0 0.0 0.0 0.00 0.00 0.00 93 1009.6
20260509104555 22 0 0.0 0.0 0.00 0.00 0.00 93 1009.5
20260509103104 22 0 0.0 0.0 0.00 0.00 0.00 93 1009.7
20260509101601 22 0 0.0 0.0 0.00 0.00 0.00 93 1009.9
20260509100054 22 0 0.0 0.0 0.00 0.00 0.00 93 1009.4
20260509094602 22 0 0.0 0.0 0.00 0.00 0.00 93 1008.9
20260509093058 22 0 0.0 0.0 0.00 0.00 0.00 93 1009.1
20260509091555 22 0 0.0 0.0 0.00 0.00 0.00 92 1008.7
20260509090057 22 0 0.0 0.0 0.00 0.00 0.00 92 1009.2
20260509084603 22 0 0.0 0.0 0.00 0.00 0.00 92 1009.5
20260509083053 22 0 0.0 0.0 0.00 0.00 0.00 92 1009.7
20260509081558 22 0 0.0 0.0 0.00 0.00 0.00 92 1009.6
20260509080058 22 0 0.0 0.0 0.00 0.00 0.00 92 1009.6
20260509074555 22 0 0.0 0.0 0.00 0.00 0.00 92 1009.3
20260509073052 22 0 0.0 0.0 0.00 0.00 0.00 92 1010.0
20260509071555 22 0 0.0 0.0 0.00 0.00 0.00 92 1009.8
20260509070056 22 0 0.0 0.0 0.00 0.00 0.00 92 1009.7
20260509064602 22 0 0.0 0.0 0.00 0.00 0.00 92 1009.5
20260509063056 22 205 0.0 3.2 0.00 0.00 0.00 92 1009.4
20260509061608 22 0 0.0 1.6 0.00 0.00 0.00 91 1009.7
20260509060058 22 185 0.0 3.2 0.00 0.00 0.00 91 1009.5
20260509054610 22 0 0.0 3.2 0.00 0.00 0.00 91 1009.4
20260509053105 22 360 0.0 4.8 0.00 0.00 0.00 91 1009.4
20260509051608 22 0 0.0 3.2 0.00 0.00 0.00 91 1009.3
20260509050100 22 0 0.0 3.2 0.00 0.00 0.00 90 1009.2
20260509044616 22 0 0.0 4.8 0.00 0.00 0.00 90 1009.1
20260509043058 23 84 0.0 6.4 0.00 0.00 0.00 89 1009.1
20260509041559 23 0 0.0 3.2 0.00 0.00 0.00 89 1009.1
20260509040056 23 0 0.0 3.2 0.00 0.00 0.00 88 1009.1
20260509034555 23 98 0.0 3.2 0.00 0.00 0.00 88 1009.2
20260509033056 23 0 0.0 4.8 0.00 0.00 0.00 88 1009.2
20260509031610 23 0 0.0 4.8 0.00 0.00 0.00 87 1008.9
20260509024553 23 0 0.0 0.0 0.00 0.00 0.00 87 1008.8
20260509023106 23 0 0.0 3.2 0.00 0.00 0.00 87 1008.6
20260509021554 23 0 0.0 1.6 0.00 0.00 0.00 86 1008.7
20260509020058 24 0 0.0 0.0 0.00 0.00 0.00 86 1008.5
20260509014553 24 0 0.0 3.2 0.00 0.00 0.00 85 1008.4
20260509013053 24 0 0.0 0.0 0.00 0.00 0.00 85 1008.5
20260509011601 24 0 0.0 0.0 0.00 0.00 0.00 85 1008.3
20260509010104 24 0 0.0 3.2 0.00 0.00 0.00 84 1008.2
20260509004608 25 360 0.0 3.2 0.00 0.00 0.00 84 1008.1
20260509003100 25 0 0.0 3.2 0.00 0.00 0.00 83 1008.0
20260509001553 25 0 0.0 3.2 0.00 0.00 0.00 83 1008.2
20260509000053 25 117 0.0 3.2 0.00 0.00 0.00 82 1008.2
20260508234556 25 0 0.0 3.2 0.00 0.00 0.00 82 1007.9
20260508233057 25 0 0.0 3.2 0.00 0.00 0.00 81 1007.9
20260508231558 25 0 0.0 4.8 0.00 0.00 0.00 82 1007.9
20260508230124 25 121 0.0 3.2 0.00 0.00 0.00 80 1008.1
20260508224602 26 0 0.0 1.6 0.00 0.00 0.00 79 1008.4
20260508223056 26 0 0.0 1.6 0.00 0.00 0.00 79 1008.3
20260508221557 26 0 0.0 1.6 0.00 0.00 0.00 79 1008.4
20260508220117 26 0 0.0 1.6 0.00 0.00 0.00 79 1008.4
20260508214556 26 0 0.0 3.2 0.00 0.00 0.00 79 1008.5
20260508213100 26 0 0.0 1.6 0.00 0.00 0.00 79 1008.7
20260508211558 26 0 0.0 3.2 0.00 0.00 0.00 77 1008.8
20260508210058 26 0 0.0 3.2 0.00 0.00 0.00 79 1008.8
20260508204605 25 0 0.0 3.2 0.00 0.00 0.00 79 1009.1
20260508203101 25 0 0.0 3.2 0.00 0.00 0.00 78 1009.1